Location: Borowce
(50.8255°N, 19.6209°E)
Time: 08:46:23
(UTC+00:00)

Cosmos 2181 Rocket - Pass Details

Date: 19 May 2025
Orbit: 952 x 1013 km, 82.9° (Epoch: 17 June)

Event Time Altitude Azimuth Distance (km) Brightness Sun altitude
Exits shadow 20:58:42 12° 200° (SSW) 2,585 5.8 -15.9°
Maximum altitude 21:04:33 69° 282° (WNW) 1,061 4.3 -16.3°
Drops below altitude 10° 21:10:56 10° 6° (N) 2,786 7.4 -16.7°
Sets 21:13:32 0° 9° (N) 3,747 8.1 -16.8°
